Location: Quedlinburg
(51.7921°N, 11.1414°E)
Time: 09:00:27
(UTC+02:00)

RS-44 - Pass Details

Date: 21 March 2026
Orbit: 1175 x 1510 km, 82.5° (Epoch: 17 April)

Event Time Altitude Azimuth Distance (km) Brightness Sun altitude
Rises 00:50:09 0° 349° (N) 4,419 ? -37.7°
Reaches altitude 10° 00:53:09 10° 357° (N) 3,488 ? -37.7°
Maximum altitude 01:01:01 42° 66° (ENE) 1,993 ? -37.4°
Enters shadow 01:03:22 36° 99° (E) 2,188 ? -37.3°
